Simultaneous Nadir Overpasses (SNOs) Predictions

Prediction of SNOs between GOES-15 and METOP-B Satellite Orbit:

Table of predicted SNOs for the next 14.0 days since TLE Epoch: 10/29/2022
Index Date Time (GOES-15) GOES-15 Lat,Lon METOP-B Lat,Lon Distance(km) Time Diff (sec)
1 10/31/2022 06:05:40 0.26,-128.43 0.24,-128.59 18.61 80
2 11/02/2022 18:03:53 -0.25,-128.41 -0.32,-128.16 29.08 80
3 11/04/2022 06:22:53 0.25,-128.41 -0.72,-132.75 494.24 80
4 11/05/2022 05:59:34 0.25,-128.40 0.38,-127.75 73.94 80
5 11/06/2022 18:18:26 -0.25,-128.38 0.62,-132.31 448.13 80
6 11/07/2022 18:00:27 -0.25,-128.37 -0.47,-127.31 120.53 80
7 11/09/2022 06:19:27 0.24,-128.37 -0.55,-131.90 402.60 80
8 11/10/2022 05:56:07 0.24,-128.36 0.55,-126.91 165.04 80
9 11/11/2022 18:15:00 -0.24,-128.32 0.45,-131.47 358.65 80
